DW5462 Weather Reports


time (UTC)temp
C
wind
direction
speed
KPH
gust
KPH
rain 1hr
cm
rain 24hr
cm
rain mn
cm
humidity
%
barometer
mb
20260503194525 16 273 1.6 11.3 0.00 0.00 0.00 47 1014.2
20260503193021 16 261 0.0 17.7 0.00 0.00 0.00 47 1013.9
20260503191522 17 252 1.6 12.9 0.00 0.00 0.00 47 1014.0
20260503190020 17 265 1.6 19.3 0.00 0.00 0.00 48 1014.0
20260503184524 18 276 1.6 20.9 0.00 0.00 0.00 48 1013.6
20260503183020 18 236 0.0 0.0 0.00 0.00 0.00 56 1013.0
20260503181519 18 227 0.0 4.8 0.00 0.00 0.00 55 1013.0
20260503180016 19 256 1.6 11.3 0.00 0.00 0.00 53 1013.2
20260503174517 20 253 1.6 14.5 0.00 0.00 0.00 50 1012.9
20260503173007 21 252 0.0 9.7 0.00 0.00 0.00 46 1012.8
20260503171513 21 293 0.0 1.6 0.00 0.00 0.00 45 1012.5
20260503081601 20 26 1.6 8.0 0.00 0.00 0.00 45 1016.1
20260503071557 17 313 0.0 8.0 0.00 0.00 0.00 50 1016.0
20260503054520 7 267 0.0 0.0 0.00 0.00 0.00 87 1015.7
20260503053009 6 267 0.0 0.0 0.00 0.00 0.00 87 1015.7
20260503051555 6 267 0.0 0.0 0.00 0.00 0.00 84 1015.7
20260503050059 6 267 0.0 0.0 0.00 0.00 0.00 84 1015.7
20260503044550 6 267 0.0 0.0 0.00 0.00 0.00 84 1015.6
20260503043051 6 267 0.0 0.0 0.00 0.00 0.00 83 1015.6
20260503041547 6 267 0.0 0.0 0.00 0.00 0.00 83 1015.7
20260503040045 6 267 0.0 0.0 0.00 0.00 0.00 83 1015.6
20260503034551 6 267 0.0 0.0 0.00 0.00 0.00 83 1015.7
20260503033054 6 267 0.0 0.0 0.00 0.00 0.00 82 1015.6
20260503031531 6 267 0.0 0.0 0.00 0.00 0.00 81 1015.6
20260503030030 6 267 0.0 0.0 0.00 0.00 0.00 81 1015.6
20260503024513 6 267 0.0 0.0 0.00 0.00 0.00 81 1015.7
20260503023011 6 267 0.0 0.0 0.00 0.00 0.00 81 1015.7
20260503021511 7 267 0.0 0.0 0.00 0.00 0.00 80 1015.8
20260503020009 7 267 0.0 0.0 0.00 0.00 0.00 79 1015.8
20260503014507 7 267 0.0 0.0 0.00 0.00 0.00 78 1015.8
20260503013011 7 267 0.0 0.0 0.00 0.00 0.00 78 1016.0
20260503011503 7 267 0.0 0.0 0.00 0.00 0.00 78 1015.9
20260503010001 7 267 0.0 0.0 0.00 0.00 0.00 77 1015.9
20260503004546 7 267 0.0 0.0 0.00 0.00 0.00 77 1016.0
20260503003044 7 267 0.0 0.0 0.00 0.00 0.00 75 1016.1
20260503001542 7 267 0.0 0.0 0.00 0.00 0.00 75 1016.1
20260503000040 8 267 0.0 0.0 0.00 0.00 0.00 74 1016.2
20260502234548 8 267 0.0 0.0 0.00 0.00 0.00 74 1016.4
20260502233035 8 267 0.0 0.0 0.00 0.00 0.00 73 1016.4
20260502231534 8 267 0.0 0.0 0.00 0.00 0.00 72 1016.4
20260502230033 8 267 0.0 0.0 0.00 0.00 0.00 71 1016.5
20260502224517 9 267 0.0 0.0 0.00 0.00 0.00 70 1016.6
20260502223015 9 267 0.0 0.0 0.00 0.00 0.00 69 1016.7
20260502221512 10 267 0.0 0.0 0.00 0.00 0.00 68 1016.7
20260502220015 10 267 0.0 0.0 0.00 0.00 0.00 67 1016.6
20260502214508 10 267 0.0 0.0 0.00 0.00 0.00 66 1016.7
20260502213014 11 267 0.0 0.0 0.00 0.00 0.00 64 1016.7
20260502211505 11 267 0.0 0.0 0.00 0.00 0.00 63 1016.8
20260502210005 12 267 0.0 0.0 0.00 0.00 0.00 62 1016.9
20260502204559 12 267 0.0 0.0 0.00 0.00 0.00 60 1017.0
20260502203117 13 267 0.0 0.0 0.00 0.00 0.00 58 1017.1
20260502201604 13 267 0.0 0.0 0.00 0.00 0.00 56 1017.2
20260502200059 14 267 0.0 0.0 0.00 0.00 0.00 55 1017.1